CYCLOPS (RS29S) (53373 NORAD) Tracking and Keplerian Element Data

This shows tracking and keplerian element data for the satellite.

Feedback or suggestion? Click here.




ElementValue
Catalog53373
NameCYCLOPS (RS29S)
Epoch Orbit8021
Epoch Day13.13369768
Epoch Year2024
RAAN290.1379
Inclination97.3975
Eccentricity0.000497
Argument of Perigee95.3595
Mean Anonmoly264.8234
Mean Motion15.69503934
Decay Rate0.0019449
L11 53373U 22096D 24013.13369768 .00194490 00000+0 16194-2 0 9992
L22 53373 97.3975 290.1379 0004970 95.3595 264.8234 15.69503934 80215



Live tracking and technical data element details for CYCLOPS (RS29S) (NORAD 53373). CYCLOPS (RS29S) can be tracked NOW for your location showing map with azimuth and elevation plus other details from your city location.







IsCatalogInMostPopularTable: catalog: 53373, numindb: 47
Update: records affected: 1



GetName: 53373 CYCLOPS (RS29S)

Hit Count: updated at: Thu, 23 Jan 2025 17:25:29 GMT